[[{"header":{"parameterUnit":"m.s-1","parameterCategory":1,"la1":30.2991,"la2":30.254,"lo1":-89.0895,"lo2":-89.0444,"dy":0.0017,"dx":0.0017,"nx":28,"ny":28,"refTime":"2024-05-25T03:00:00:Z","depth":0,"parameterNumber":2,"parameterNumberName":"U-component_of_WINDS"},"data":[0,0,0,0,0,0,0,0,0,0,0,0,0,0,0,0,0,0,0,0,0,0,0,0,0,0,0,0,0,0,0,0,0,0,0,0,0,0,0,0,0,0,0,0,0,0,0,0,0,0,0,0,0,0,0,0,0,0,1.1282,1.1281,0,1.1213,1.1212,1.1211,1.113,1.1129,1.1128,1.1126,1.1057,1.1056,1.1055,0,0,0,0,0,0,0,0,0,0,0,0,0,1.1342,1.1342,1.1282,1.1281,1.128,1.1213,1.1212,1.1211,1.113,1.1129,1.1127,1.1126,1.1057,1.1056,1.1055,0,0,0,0,0,0,0,0,0,0,0,0,0,1.1299,1.1342,1.1282,1.1232,1.1226,1.1213,1.1212,1.1211,1.1131,1.1129,1.1127,1.1125,1.1057,1.1056,1.1055,1.1086,0,0,1.1052,1.1051,0,0,0,0,0,0,0,0,1.1302,1.1297,1.124,1.1235,1.1229,1.1178,1.1208,1.1169,1.1131,1.1167,1.1126,1.1124,1.1099,1.1094,1.1085,1.1083,1.108,1.1052,1.1051,1.1051,1.105,0,0,0,0,0,0,0,1.1305,1.13,1.1254,1.1239,1.1233,1.1212,1.1204,1.12,1.1144,1.1164,1.1158,1.1151,1.1095,1.1086,1.1083,1.1079,1.1052,1.1051,1.105,1.105,1.1095,1.1097,0,0,0,0,0,0,1.1315,1.1303,1.1257,1.1252,1.1262,1.1213,1.1203,1.1196,1.1144,1.1134,1.1152,1.1147,1.1089,1.1084,1.108,1.1111,1.1051,1.105,1.1049,1.1093,1.1096,1.1097,0,0,0,0,0,0,1.1317,1.1312,1.1259,1.1276,1.1267,1.1214,1.1206,1.1196,1.1187,1.1135,1.1125,1.1153,1.1088,1.1082,1.1084,1.1107,1.1049,1.1048,1.1091,1.1094,1.1097,1.1173,0,0,0,0,0,0,1.1319,1.1313,1.1324,1.1277,1.1267,1.1265,1.1208,1.1196,1.1185,1.1178,1.1134,1.1125,1.1086,1.1086,1.1083,1.1105,1.1047,1.1089,1.1092,1.1096,1.1168,1.1178,1.1187,0,0,0,0,0,1.1322,1.1349,1.1325,1.132,1.128,1.1267,1.1261,1.1215,1.1188,1.1198,1.1165,1.1126,1.1106,1.1087,1.1083,1.1105,1.1087,1.1091,1.1095,1.1164,1.1176,1.1186,0,0,0,0,0,0,1.1402,1.1342,1.1315,1.1328,1.1303,1.1253,1.1265,1.123,1.1212,1.1206,1.1151,1.1141,1.115,1.1128,1.1109,1.113,1.1091,1.1094,1.1144,1.1155,1.1164,1.1169,1.1047,0,0,0,0,0,1.1421,1.1415,1.1364,1.138,1.1369,1.1319,1.1312,1.1279,1.1251,1.124,1.1206,1.118,1.1168,1.1161,1.1146,1.1165,1.1153,1.1178,1.1187,1.1195,1.1198,1.1204,1.1213,1.1111,1.1111,1.1111,0,0,1.1461,1.1427,1.1427,1.1395,1.1372,1.1366,1.1311,1.1308,1.1303,1.1239,1.1239,1.1214,1.1181,1.1191,1.1194,1.1173,1.1224,1.12,1.1207,1.1205,1.1209,1.1219,1.1227,1.1114,1.1113,1.1113,0,0,1.1529,1.1505,1.1514,1.1492,1.1457,1.1424,1.1426,1.1381,1.1362,1.1361,1.1312,1.1306,1.1286,1.1263,1.125,1.1309,1.1272,1.1307,1.1354,1.136,1.1368,1.1375,1.1394,1.1402,1.131,1.131,1.1311,0,1.1583,1.1573,1.1524,1.1523,1.151,1.1452,1.1461,1.1442,1.1404,1.1396,1.1373,1.1345,1.1319,1.1323,1.1337,1.1329,1.1328,1.131,1.1371,1.1377,1.1383,1.14,1.1408,1.1315,1.1314,1.1314,1.1313,0,1.1639,1.1633,1.1645,1.1609,1.1598,1.1602,1.1554,1.1548,1.1516,1.1485,1.1484,1.1451,1.1428,1.1427,1.1396,1.1425,1.1412,1.1381,1.134,1.1398,1.1413,1.142,1.1321,1.1319,1.1318,1.1317,0,0,1.1755,1.1692,1.1697,1.1679,1.1636,1.163,1.1632,1.1609,1.1604,1.1581,1.1579,1.1563,1.1533,1.1518,1.1484,1.149,1.1537,1.1458,1.1456,1.1471,1.1564,1.1586,1.1595,1.1513,1.1514,1.1515,1.1566,0,1.1814,1.1813,1.1769,1.1779,1.1772,1.1716,1.1717,1.1691,1.1662,1.1651,1.1619,1.1608,1.1571,1.1561,1.1564,1.153,1.1554,1.1526,1.1509,1.1509,1.1517,1.1603,1.1627,1.1677,1.1572,1.1573,1.1574,0,1.1883,1.1862,1.1872,1.1827,1.1822,1.1824,1.1798,1.1789,1.1758,1.1736,1.1718,1.168,1.1677,1.164,1.1634,1.1616,1.1607,1.1589,1.159,1.1585,1.1544,1.1598,1.1692,1.1699,1.1583,1.1582,1.1582,0,1.1963,1.1938,1.194,1.1927,1.1875,1.1877,1.1856,1.1823,1.1811,1.1789,1.1781,1.176,1.1747,1.1731,1.1687,1.1664,1.1686,1.1646,1.1667,1.1668,1.1672,1.1672,1.1763,1.1671,1.167,1.167,1.167,0,1.2032,1.204,1.1975,1.1976,1.1983,1.1932,1.194,1.1913,1.1884,1.1878,1.183,1.1825,1.1769,1.1758,1.1724,1.1723,1.1719,1.17,1.1691,1.1703,1.1705,1.1695,1.1689,1.1672,1.1672,1.1671,1.1671,0,1.2123,1.208,1.2078,1.2029,1.2017,1.2024,1.1982,1.198,1.1949,1.1942,1.1937,1.1887,1.1872,1.1827,1.18,1.1777,1.1786,1.177,1.1796,1.179,1.1813,1.181,1.1898,1.1906,1.1811,1.1812,1.1813,0,1.2168,1.2173,1.2124,1.2117,1.2097,1.2086,1.2074,1.2025,1.2014,1.1978,1.198,1.1961,1.1942,1.192,1.1881,1.1859,1.1841,1.1873,1.1837,1.1849,1.1838,1.1837,1.1837,1.188,1.1882,1.1883,1.1884,0,1.2253,1.2232,1.2216,1.2193,1.2179,1.2159,1.2135,1.2132,1.2077,1.2067,1.205,1.2036,1.2008,1.1989,1.1961,1.1938,1.1901,1.1896,1.1899,1.191,1.1925,1.1915,1.1815,1.1893,1.1892,1.1892,1.1891,1.1891,1.2321,1.2321,1.2287,1.227,1.2248,1.2227,1.2222,1.219,1.2175,1.2148,1.212,1.2106,1.2073,1.2032,1.2012,1.2,1.198,1.1986,1.1987,1.1988,1.1993,1.1929,1.1995,1.1994,1.1994,1.1994,1.1994,0,1.24,1.2376,1.2361,1.233,1.2317,1.2284,1.2256,1.2247,1.2235,1.2208,1.219,1.217,1.2151,1.2111,1.2087,1.2085,1.2067,1.208,1.2079,1.2074,1.2013,1.2011,1.2095,1.2095,1.2095,1.2095,1.2095,1.2095,1.244,1.2439,1.2413,1.2399,1.2374,1.236,1.2346,1.2326,1.2304,1.2284,1.2267,1.2241,1.2208,1.2182,1.2162,1.2151,1.2143,1.2161,1.2144,1.2088,1.2078,1.2069,1.2067,1.2161,1.2161,1.2205,1.2206,1.2206]},{"header":{"parameterUnit":"m.s-1","parameterCategory":1,"la1":30.2991,"la2":30.254,"lo1":-89.0895,"lo2":-89.0444,"dy":0.0017,"dx":0.0017,"nx":28,"ny":28,"refTime":"2024-05-25T03:00:00:Z","depth":0,"parameterNumber":3,"parameterNumberName":"V-component_of_WINDS"},"data":[0,0,0,0,0,0,0,0,0,0,0,0,0,0,0,0,0,0,0,0,0,0,0,0,0,0,0,0,0,0,0,0,0,0,0,0,0,0,0,0,0,0,0,0,0,0,0,0,0,0,0,0,0,0,0,0,0,0,4.3917,4.3917,0,4.3913,4.3913,4.3913,4.3861,4.3859,4.3858,4.3857,4.3853,4.3854,4.3855,0,0,0,0,0,0,0,0,0,0,0,0,0,4.3879,4.388,4.3917,4.3917,4.3917,4.3913,4.3913,4.3913,4.3861,4.3859,4.3858,4.3856,4.3853,4.3854,4.3856,0,0,0,0,0,0,0,0,0,0,0,0,0,4.3888,4.3881,4.3917,4.3891,4.3888,4.3913,4.3913,4.3913,4.3861,4.3859,4.3857,4.3855,4.3852,4.3854,4.3856,4.3906,0,0,4.3861,4.3862,0,0,0,0,0,0,0,0,4.3887,4.3889,4.3895,4.3892,4.389,4.3885,4.3898,4.3911,4.3862,4.3872,4.3857,4.3854,4.3866,4.3866,4.387,4.3906,4.3906,4.3861,4.3862,4.3863,4.3863,0,0,0,0,0,0,0,4.3887,4.3889,4.3916,4.3895,4.3892,4.3879,4.3878,4.3901,4.388,4.3871,4.3867,4.3867,4.3864,4.3868,4.3869,4.3906,4.3861,4.3863,4.3864,4.3864,4.3982,4.3984,0,0,0,0,0,0,4.389,4.3889,4.3916,4.3915,4.3884,4.3881,4.388,4.3889,4.3879,4.3876,4.3869,4.3864,4.3866,4.3867,4.3869,4.3926,4.3863,4.3865,4.3866,4.398,4.3982,4.3984,0,0,0,0,0,0,4.3889,4.3893,4.3916,4.3901,4.3903,4.3884,4.3894,4.389,4.3894,4.3878,4.3874,4.3877,4.3865,4.3867,4.3897,4.3925,4.3865,4.3867,4.3977,4.398,4.3983,4.4041,0,0,0,0,0,0,4.3888,4.3893,4.3912,4.3902,4.3904,4.3944,4.3896,4.3891,4.3897,4.3892,4.3885,4.3882,4.3863,4.3895,4.3899,4.3926,4.3868,4.3974,4.3979,4.3982,4.4037,4.4046,4.4054,0,0,0,0,0,4.3887,4.3929,4.3913,4.3917,4.3927,4.3946,4.3947,4.3925,4.39,4.3918,4.3908,4.3882,4.3922,4.3898,4.3902,4.3931,4.3973,4.3977,4.3982,4.4033,4.4044,4.4054,0,0,0,0,0,0,4.3943,4.3927,4.3909,4.3949,4.3949,4.3937,4.396,4.3938,4.3946,4.394,4.3913,4.3912,4.3946,4.3942,4.3916,4.3979,4.3943,4.3948,4.398,4.399,4.3999,4.3999,4.387,0,0,0,0,0,4.396,4.3976,4.3961,4.3998,4.3999,4.398,4.3987,4.397,4.3969,4.3969,4.396,4.3961,4.3973,4.3982,4.3992,4.4036,4.4033,4.4058,4.4067,4.4074,4.4079,4.41,4.4111,4.4,4.4,4.4,0,0,4.3995,4.3988,4.4,4.4009,4.4007,4.4024,4.398,4.4,4.4012,4.3972,4.3999,4.3994,4.3992,4.4029,4.4045,4.4026,4.4109,4.408,4.4086,4.4086,4.4106,4.4117,4.4126,4.4003,4.4002,4.4002,0,0,4.4067,4.4065,4.4094,4.4092,4.409,4.4077,4.4084,4.4075,4.4069,4.4096,4.4066,4.408,4.4103,4.4102,4.4105,4.4177,4.4152,4.4181,4.4225,4.4247,4.4255,4.4263,4.4287,4.4296,4.4186,4.4186,4.4186,0,4.4111,4.4136,4.4112,4.4133,4.4137,4.4101,4.413,4.413,4.4132,4.4135,4.4115,4.4141,4.4138,4.4173,4.4191,4.4195,4.4201,4.4181,4.4256,4.4263,4.427,4.4293,4.4302,4.419,4.4189,4.4189,4.4189,0,4.4189,4.4206,4.423,4.4231,4.4239,4.4264,4.4244,4.4254,4.4236,4.4225,4.4253,4.4248,4.4256,4.4263,4.4247,4.4296,4.4285,4.4261,4.4224,4.4284,4.4305,4.4314,4.4194,4.4193,4.4192,4.4191,0,0,4.4296,4.4283,4.4292,4.4291,4.4286,4.4299,4.4322,4.433,4.4338,4.4341,4.4359,4.4379,4.4356,4.4359,4.4342,4.4361,4.4417,4.4334,4.4334,4.4349,4.4469,4.4487,4.4497,4.4401,4.4403,4.4404,4.4469,0,4.4364,4.4403,4.4382,4.4424,4.4439,4.4404,4.4425,4.4423,4.4414,4.4425,4.4415,4.4428,4.4398,4.4399,4.4417,4.4406,4.444,4.4401,4.4417,4.4418,4.4417,4.4508,4.4526,4.4588,4.4477,4.4479,4.448,0,4.4449,4.4454,4.4497,4.4487,4.4493,4.4511,4.4516,4.4527,4.4525,4.4517,4.452,4.4498,4.452,4.4485,4.4514,4.4489,4.4494,4.449,4.4492,4.4491,4.4451,4.4509,4.4608,4.4616,4.4492,4.4491,4.4491,0,4.4521,4.4538,4.4566,4.4567,4.4556,4.457,4.4566,4.4562,4.4567,4.4572,4.4575,4.4582,4.4586,4.4592,4.4573,4.4549,4.4605,4.4568,4.4598,4.4598,4.461,4.4609,4.471,4.4616,4.4616,4.4616,4.4616,0,4.4598,4.4626,4.4597,4.4614,4.4644,4.4619,4.4649,4.4642,4.4638,4.4652,4.4624,4.4638,4.4613,4.4625,4.461,4.4636,4.4638,4.4632,4.4627,4.4633,4.4634,4.4636,4.463,4.4618,4.4618,4.4617,4.4617,0,4.4683,4.4665,4.4693,4.468,4.4678,4.47,4.4689,4.4704,4.4693,4.4712,4.4715,4.4697,4.4709,4.4691,4.4701,4.4691,4.4727,4.4717,4.4727,4.4724,4.4754,4.4751,4.4858,4.487,4.477,4.4771,4.4772,0,4.4733,4.4753,4.4742,4.475,4.4748,4.476,4.4765,4.4742,4.4749,4.4747,4.4762,4.4772,4.4778,4.48,4.4788,4.4795,4.4784,4.4821,4.4785,4.479,4.4783,4.4781,4.4783,4.4828,4.4829,4.483,4.4831,0,4.4823,4.4813,4.4821,4.4827,4.4833,4.4837,4.4838,4.4846,4.4821,4.483,4.4842,4.4847,4.4857,4.4867,4.4872,4.4868,4.4845,4.4843,4.485,4.4855,4.486,4.4857,4.4746,4.484,4.4839,4.4838,4.4838,4.4838,4.489,4.4906,4.4901,4.4911,4.4909,4.4911,4.4923,4.4913,4.4923,4.4929,4.4915,4.493,4.4926,4.493,4.4929,4.494,4.4924,4.4935,4.4937,4.4939,4.4943,4.486,4.4941,4.4941,4.4941,4.494,4.494,0,4.4978,4.4972,4.4982,4.4984,4.4992,4.497,4.4969,4.4977,4.4991,4.4989,4.4996,4.5009,4.5019,4.5007,4.5014,4.5026,4.5015,4.5028,4.5026,4.5026,4.4958,4.4951,4.5036,4.5036,4.5036,4.5036,4.5036,4.5036,4.5024,4.5048,4.5038,4.5061,4.5056,4.507,4.5071,4.5072,4.5071,4.5087,4.5094,4.5086,4.5081,4.5087,4.5094,4.5091,4.5094,4.5111,4.5103,4.504,4.5031,4.5022,4.5014,4.5112,4.5112,4.5169,4.517,4.517]}]]